Location: *
(45.9500°N, 9.0833°E)
Time: 20:45:41
(UTC+00:00)

Tiros 1 - Pass Details

Date: 18 June 2021
Orbit: 630 x 664 km, 48.4° (Epoch: 05 August)

Event Time Altitude Azimuth Distance (km) Brightness Sun altitude
Rises 10:20:49 0° 231° (SW) 2,915 10.5 64.0°
Reaches altitude 10° 10:23:09 10° 227° (SW) 2,013 9.9 64.2°
Maximum altitude 10:27:39 53° 151° (SSE) 790 9.9 64.7°
Drops below altitude 10° 10:32:14 10° 75° (ENE) 2,041 10.0 65.1°
Sets 10:34:37 0° 71° (ENE) 2,959 10.6 65.3°
